QPF
0.00 0.00 0.00 0.00 0.00 0.00 0.00 0.00 0.00 0.00 0.00 0.00 0.00 0.00 0.00 0.00 0.00 0.00 0.00 0.00 0.00 0.00 0.00 0.00 0.00 0.00 0.00 0.00 0.00 0.00 0.00 0.00 0.00
0.00 0.00 0.00 0.00 0.00 0.00 0.00 0.00 0.00 0.00 0.00 0.00 0.00 0.00 0.00 0.00 0.00 0.00 0.00 0.00 0.00 0.00 0.00 0.00 0.00 0.00 0.00 0.00 0.00 0.00 0.00 0.00 0.00
0.00 0.00 0.00 0.00 0.00 0.00 0.00 0.00 0.00 0.00 0.00 0.00 0.00 0.00 0.00 0.00 0.00 0.00 0.00 0.00 0.00 0.00 0.00 0.00 0.00 0.00 0.00 0.00 0.00 0.00 0.00 0.00 0.00
0.00 0.00 0.00 0.00 0.00 0.00 0.00 0.00 0.00 0.00 0.00 0.00 0.00 0.00 0.00 0.00 0.00 0.00 0.00 0.00 0.00 0.00 0.00 0.00 0.00 0.00 0.00 0.00 0.00 0.00 0.00 0.00 0.00
0.00 0.00 0.00 0.00 0.00 0.00 0.00 0.00 0.00 0.00 0.00 0.00 0.00 0.00 0.00 0.00 0.00 0.00 0.00 0.00 0.00 0.00 0.00 0.00 0.00 0.00 0.00 0.00 0.00 0.00 0.00 0.00 0.00
0.00 0.00 0.00 0.00 0.00 0.00 0.00 0.00 0.00 0.00 0.00 0.00 0.00 0.00 0.00 0.00 0.00 0.00 0.00 0.00 0.00 0.00 0.00 0.00 0.00 0.00 0.00 0.00 0.00 0.00 0.00 0.00 0.00
0.00 0.00 0.00 0.00 0.00 0.00 0.00 0.00 0.00 0.00 0.00 0.00 0.00 0.00 0.00 0.00 0.00 0.00 0.00 0.00 0.00 0.00 0.00 0.00 0.00 0.00 0.00 0.00 0.00 0.00 0.00 0.00 0.00
0.00 0.00 0.00 0.00 0.00 0.00 0.00 0.00 0.00 0.00 0.00 0.00 0.00 0.00 0.00 0.00 0.00 0.00 0.00 0.00 0.00 0.00 0.00 0.00 0.00 0.00 0.00 0.00 0.00 0.00 0.00 0.00 0.00
0.00 0.00 0.00 0.00 0.00 0.00 0.00 0.00 0.00 0.00 0.00 0.00 0.00 0.00 0.00 0.00 0.00 0.00 0.00 0.00 0.00 0.00 0.00 0.00 0.00 0.00 0.00 0.00 0.00 0.00 0.00 0.00 0.00
0.00 0.00 0.00 0.00 0.00 0.00 0.00 0.00 0.00 0.00 0.00 0.00 0.00 0.00 0.00 0.00 0.00 0.00 0.00 0.00 0.00 0.00 0.00 0.00 0.00 0.00 0.00 0.00 0.00 0.00 0.00 0.00 0.00
0.00 0.00 0.00 0.00 0.00 0.00 0.00 0.00 0.00 0.00 0.00 0.00 0.00 0.00 0.00 0.00 0.00 0.00 0.00 0.00 0.00 0.00 0.00 0.00 0.00 0.00 0.00 0.00 0.00 0.00 0.00 0.00 0.00
0.00 0.00 0.00 0.00 0.00 0.00 0.00 0.00 0.00 0.00 0.00 0.00 0.00 0.00 0.00 0.00 0.00 0.00 0.00 0.00 0.00 0.00 0.00 0.00 0.00 0.00 0.00 0.00 0.00 0.00 0.00 0.00 0.00
0.00 0.00 0.00 0.00 0.00 0.00 0.00 0.00 0.00 0.00 0.00 0.00 0.00 0.00 0.00 0.00 0.00 0.00 0.00 0.00 0.00 0.00 0.00 0.00 0.00 0.00 0.00 0.00 0.00 0.00 0.00 0.00 0.00
0.00 0.00 0.00 0.00 0.00 0.00 0.00 0.00 0.00 0.00 0.00 0.00 0.00 0.00 0.00 0.00 0.00 0.00 0.00 0.00 0.00 0.00 0.00 0.00 0.00 0.00 0.00 0.00 0.00 0.00 0.00 0.00 0.00
0.00 0.00 0.00 0.00 0.00 0.00 0.00 0.00 0.00 0.00 0.00 0.00 0.00 0.00 0.00 0.00 0.00 0.00 0.00 0.00 0.00 0.00 0.00 0.00 0.00 0.00 0.00 0.00 0.00 0.00 0.00 0.00 0.00
0.00 0.00 0.00 0.00 0.00 0.00 0.00 0.00 0.00 0.00 0.00 0.00 0.00 0.00 0.00 0.00 0.00 0.00 0.00 0.00 0.00 0.00 0.00 0.00 0.00 0.00 0.01 0.01 0.01 0.00 0.00 0.00 0.00
0.00 0.00 0.00 0.00 0.00 0.00 0.00 0.00 0.00 0.00 0.00 0.00 0.00 0.00 0.00 0.00 0.00 0.00 0.00 0.00 0.00 0.00 0.00 0.01 0.01 0.01 0.01 0.01 0.00 0.00 0.00 0.00 0.00
0.00 0.00 0.00 0.00 0.00 0.00 0.00 0.00 0.00 0.00 0.00 0.00 0.00 0.00 0.00 0.00 0.00 0.00 0.00 0.00 0.00 0.00 0.00 0.00 0.01 0.01 0.00 0.00 0.00 0.00 0.01 0.01 0.00
0.00 0.00 0.00 0.00 0.00 0.00 0.00 0.00 0.00 0.00 0.00 0.00 0.00 0.00 0.00 0.00 0.00 0.00 0.00 0.00 0.00 0.00 0.00 0.00 0.00 0.01 0.01 0.00 0.01 0.02 0.01 0.00 0.00
0.00 0.00 0.00 0.00 0.00 0.00 0.00 0.00 0.00 0.00 0.00 0.00 0.00 0.00 0.00 0.00 0.00 0.00 0.00 0.00 0.00 0.00 0.00 0.00 0.00 0.00 0.01 0.01 0.00 0.00 0.00 0.00 0.00
MSLP
997.69 998.68 999.06 999.82 1001.06 1002.23 1003.36 1004.23 1005.49 1006.70 1007.75 1008.49 1009.21 1009.92 1010.57 1011.18 1012.09 1012.59 1013.01 1013.47 1013.66 1013.99 1014.29 1014.67 1015.02 1015.42 1015.66 1016.08 1016.40 1016.80 1017.12 1017.65 1018.01
996.18 996.86 997.50 998.77 999.84 1000.78 1002.25 1003.28 1004.19 1005.32 1006.75 1007.77 1008.60 1009.26 1010.05 1010.68 1011.33 1011.94 1012.16 1012.53 1013.09 1013.32 1013.52 1013.88 1014.33 1014.75 1015.19 1015.51 1015.84 1016.29 1016.85 1017.29 1017.61
993.92 995.32 996.30 997.35 998.62 999.91 1001.07 1002.01 1003.06 1004.54 1005.90 1006.95 1007.80 1008.67 1009.32 1009.95 1010.26 1010.88 1011.48 1012.12 1012.54 1012.72 1012.83 1013.27 1013.63 1014.04 1014.42 1014.90 1015.31 1015.86 1016.36 1016.88 1017.29
992.11 993.31 994.89 996.34 997.79 998.89 999.79 1001.00 1002.32 1003.53 1004.93 1006.25 1007.30 1007.92 1008.37 1009.03 1009.75 1010.30 1011.06 1011.47 1011.82 1012.18 1012.42 1012.54 1012.97 1013.32 1013.86 1014.30 1014.90 1015.48 1015.91 1016.22 1016.64
991.66 992.45 993.69 995.20 996.58 997.78 999.33 1000.24 1001.38 1002.43 1003.72 1004.96 1005.89 1006.85 1007.85 1008.57 1009.13 1009.73 1010.27 1010.78 1011.14 1011.44 1011.84 1011.94 1012.15 1012.79 1013.35 1013.96 1014.31 1014.70 1015.18 1015.61 1015.93
991.25 992.13 993.21 994.43 995.87 997.06 998.29 999.32 1000.32 1001.51 1002.44 1003.70 1004.95 1006.10 1006.99 1007.73 1008.33 1008.98 1009.55 1009.94 1010.40 1010.76 1010.92 1011.25 1011.69 1012.38 1012.63 1012.93 1013.50 1014.02 1014.41 1014.77 1015.13
991.23 991.85 992.96 993.99 995.18 996.25 997.20 998.27 999.26 1000.35 1001.63 1002.83 1004.04 1005.10 1005.89 1006.51 1007.23 1007.88 1008.48 1009.11 1009.55 1009.93 1010.18 1010.60 1011.07 1011.37 1011.86 1012.26 1012.53 1013.02 1013.48 1013.89 1014.32
991.66 992.12 992.79 993.59 994.46 995.41 996.44 997.55 998.43 999.50 1000.58 1001.67 1002.77 1003.90 1004.66 1005.21 1006.02 1006.69 1007.38 1007.99 1008.43 1008.89 1009.35 1009.89 1010.34 1010.75 1011.07 1011.45 1011.81 1012.06 1012.48 1012.86 1013.27
992.63 993.01 993.06 993.70 994.14 994.96 995.66 996.40 997.39 998.39 999.58 1000.46 1001.47 1002.31 1002.96 1004.04 1004.94 1005.66 1006.27 1006.81 1007.35 1007.91 1008.48 1008.97 1009.43 1009.74 1010.04 1010.46 1010.66 1010.89 1011.26 1011.85 1012.38
993.48 993.52 994.11 994.47 994.70 995.32 995.93 996.33 996.89 997.74 998.55 999.44 1000.39 1001.07 1001.95 1002.80 1003.71 1004.45 1005.04 1005.73 1006.38 1006.92 1007.46 1008.04 1008.36 1008.69 1009.08 1009.25 1009.51 1009.88 1010.38 1011.05 1011.50
993.99 994.19 994.74 994.95 995.34 995.67 995.82 996.30 996.56 997.08 998.01 998.91 999.64 1000.30 1001.10 1001.95 1002.73 1003.43 1004.13 1004.73 1005.19 1005.78 1006.33 1006.71 1007.13 1007.52 1007.93 1008.31 1008.29 1008.91 1009.50 1010.27 1010.72
995.14 995.10 995.19 995.50 995.69 996.14 996.06 996.15 996.41 996.97 997.77 998.31 999.04 999.62 1000.20 1000.88 1001.55 1002.39 1003.17 1003.71 1004.19 1004.77 1005.38 1005.80 1006.06 1006.52 1007.00 1007.16 1007.46 1008.13 1008.87 1009.74 1010.02
995.76 995.69 995.59 995.72 995.82 996.28 996.55 996.73 996.55 996.74 997.07 997.66 998.16 998.73 999.24 999.91 1000.63 1001.36 1001.86 1002.43 1003.12 1003.68 1004.20 1004.67 1005.25 1005.49 1005.73 1006.12 1006.56 1007.26 1007.98 1008.70 1008.97
996.79 996.44 996.32 996.09 996.26 996.71 996.88 996.78 997.04 997.26 997.38 997.61 997.48 998.10 998.83 999.46 999.88 1000.30 1000.85 1001.58 1002.28 1002.89 1003.49 1004.09 1004.50 1004.80 1005.08 1005.39 1005.85 1006.44 1007.04 1007.51 1007.85
998.46 997.68 997.23 997.20 997.32 997.36 997.03 996.64 996.89 997.48 997.61 997.54 997.55 997.99 998.64 998.96 999.35 999.90 1000.51 1001.10 1001.76 1002.34 1002.93 1003.46 1003.92 1004.35 1004.59 1004.82 1005.11 1005.53 1006.05 1006.54 1006.84
999.80 999.13 998.56 998.35 998.49 998.35 998.12 997.98 997.74 997.82 998.11 997.99 998.04 997.94 998.20 998.50 998.95 999.52 1000.05 1000.76 1001.42 1002.03 1002.49 1002.94 1003.53 1004.00 1004.32 1004.46 1004.58 1004.74 1004.98 1005.26 1005.48
1000.46 999.89 999.40 999.54 999.59 999.51 999.17 998.90 998.78 998.72 998.26 997.99 997.97 997.92 998.13 998.37 998.79 999.39 999.92 1000.42 1001.05 1001.68 1002.28 1002.76 1003.18 1003.50 1003.86 1004.09 1004.25 1004.46 1004.65 1004.96 1005.36
1000.99 1000.36 1000.03 1000.33 1000.46 1000.58 1000.09 999.80 999.68 999.39 999.06 998.72 998.66 998.29 998.24 998.38 998.59 999.10 999.74 1000.30 1001.18 1001.67 1002.03 1002.05 1002.44 1002.88 1003.33 1003.94 1004.65 1005.35 1005.52 1005.43 1005.20
1001.34 1000.87 1000.66 1000.83 1000.95 1000.90 1000.60 1000.11 1000.01 999.87 999.65 999.37 999.21 998.96 998.65 998.55 998.70 999.08 999.59 1000.17 1001.74 1002.27 1002.37 1002.32 1002.57 1002.85 1003.43 1004.79 1005.15 1005.60 1005.56 1005.46 1005.17
1000.82 1000.98 1001.32 1001.46 1001.34 1001.20 1000.88 1000.64 1000.38 1000.05 999.87 999.73 999.59 999.31 998.76 998.69 998.73 998.90 999.35 999.94 1001.21 1003.06 1004.17 1004.09 1003.73 1003.93 1004.38 1004.87 1005.55 1005.86 1005.63 1005.36 1005.12
Thickness
5851 5848 5861 5864 5852 5850 5844 5846 5843 5837 5833 5831 5831 5830 5828 5829 5826 5824 5823 5822 5823 5822 5820 5818 5817 5814 5810 5808 5806 5802 5800 5796 5793
5857 5860 5866 5862 5865 5860 5851 5851 5850 5846 5838 5835 5833 5832 5831 5830 5829 5828 5828 5828 5827 5827 5826 5824 5821 5818 5814 5813 5810 5806 5803 5799 5795
5873 5870 5866 5871 5872 5862 5859 5859 5857 5851 5843 5838 5837 5835 5835 5834 5835 5835 5833 5829 5826 5827 5829 5826 5823 5821 5819 5816 5813 5809 5805 5800 5797
5888 5882 5874 5875 5871 5871 5869 5864 5860 5855 5848 5841 5838 5839 5840 5838 5836 5835 5832 5831 5830 5828 5828 5828 5824 5823 5820 5818 5813 5809 5806 5803 5800
5887 5893 5885 5881 5879 5877 5868 5866 5864 5861 5855 5849 5847 5844 5840 5838 5838 5837 5835 5833 5832 5832 5828 5830 5829 5825 5821 5816 5814 5812 5808 5804 5803
5889 5887 5885 5883 5880 5877 5872 5869 5868 5865 5863 5857 5853 5848 5845 5842 5841 5839 5837 5837 5836 5834 5834 5833 5831 5826 5823 5821 5818 5814 5812 5810 5806
5886 5887 5884 5882 5879 5879 5880 5875 5873 5869 5865 5863 5858 5853 5851 5848 5847 5846 5844 5842 5841 5839 5838 5835 5832 5831 5828 5827 5825 5822 5819 5816 5812
5879 5880 5882 5879 5880 5881 5881 5877 5875 5872 5869 5867 5865 5859 5857 5856 5855 5853 5851 5848 5848 5846 5843 5839 5836 5834 5833 5832 5830 5829 5826 5823 5819
5862 5866 5874 5875 5878 5879 5881 5882 5880 5878 5872 5871 5872 5868 5867 5864 5861 5858 5856 5854 5852 5850 5847 5844 5841 5839 5838 5837 5838 5837 5834 5831 5825
5855 5859 5861 5864 5867 5868 5872 5878 5885 5879 5879 5879 5874 5874 5873 5870 5868 5864 5863 5860 5857 5854 5851 5848 5846 5845 5844 5844 5845 5842 5838 5834 5832
5847 5853 5854 5857 5860 5865 5870 5876 5881 5885 5880 5877 5876 5875 5874 5874 5873 5870 5867 5864 5862 5860 5858 5855 5853 5852 5850 5849 5852 5847 5841 5834 5834
5834 5839 5847 5852 5858 5859 5864 5870 5876 5877 5875 5876 5875 5876 5877 5878 5878 5873 5870 5868 5866 5864 5861 5859 5858 5856 5853 5853 5854 5848 5842 5833 5832
5830 5836 5845 5850 5857 5858 5859 5861 5870 5872 5875 5877 5877 5881 5882 5882 5880 5877 5875 5875 5871 5869 5866 5864 5861 5859 5859 5857 5855 5850 5842 5837 5835
5819 5828 5836 5845 5849 5849 5853 5861 5862 5859 5864 5866 5880 5879 5877 5876 5878 5879 5878 5874 5872 5869 5865 5862 5860 5859 5859 5858 5856 5852 5843 5838 5837
5798 5811 5822 5829 5830 5835 5845 5854 5856 5852 5856 5868 5874 5874 5873 5874 5875 5875 5872 5868 5867 5865 5862 5858 5855 5853 5852 5855 5854 5850 5844 5839 5836
5782 5796 5807 5817 5818 5823 5831 5837 5844 5845 5848 5855 5859 5864 5865 5867 5868 5867 5865 5860 5857 5856 5856 5853 5848 5845 5844 5845 5849 5849 5844 5841 5840
5766 5785 5796 5802 5804 5807 5814 5825 5831 5834 5843 5850 5852 5854 5858 5860 5859 5857 5856 5856 5855 5851 5847 5843 5841 5839 5838 5839 5841 5841 5840 5838 5834
5758 5776 5785 5786 5787 5791 5801 5811 5815 5821 5829 5836 5838 5844 5848 5851 5853 5852 5849 5848 5844 5844 5844 5843 5839 5838 5837 5834 5827 5824 5822 5822 5826
5753 5760 5769 5771 5775 5782 5789 5799 5804 5810 5817 5822 5825 5830 5837 5841 5843 5842 5841 5838 5828 5825 5826 5828 5827 5826 5825 5816 5813 5809 5808 5807 5807
5744 5748 5752 5757 5764 5772 5781 5786 5791 5800 5807 5811 5814 5818 5826 5829 5833 5836 5834 5832 5824 5809 5803 5802 5807 5807 5805 5801 5796 5791 5793 5794 5795